TimeCST,TemperatureF,Dew PointF,Humidity,Sea Level PressureIn,VisibilityMPH,Wind Direction,Wind SpeedMPH,Gust SpeedMPH,PrecipitationIn,Events,Conditions,WindDirDegrees,DateUTC
12:15 AM,55.4,53.6,94,29.87,7.0,Calm,Calm,-,N/A,,Scattered Clouds,0,2012-12-03 06:15:00
12:35 AM,55.4,53.6,94,29.86,7.0,SE,3.5,-,N/A,,Scattered Clouds,130,2012-12-03 06:35:00
12:55 AM,55.4,53.6,94,29.85,7.0,SE,8.1,-,N/A,,Mostly Cloudy,130,2012-12-03 06:55:00
1:15 AM,55.4,53.6,94,29.84,7.0,SE,3.5,-,N/A,,Scattered Clouds,130,2012-12-03 07:15:00
1:35 AM,55.4,53.6,94,29.84,7.0,SE,4.6,-,N/A,,Clear,140,2012-12-03 07:35:00
2:15 AM,59.0,55.4,88,29.83,10.0,SSE,9.2,-,N/A,,Clear,160,2012-12-03 08:15:00
2:35 AM,59.0,55.4,88,29.82,10.0,SSE,9.2,-,N/A,,Clear,150,2012-12-03 08:35:00
2:55 AM,60.8,57.2,88,29.82,10.0,SSE,8.1,-,N/A,,Clear,160,2012-12-03 08:55:00
3:15 AM,62.6,57.2,82,29.81,10.0,SSE,10.4,-,N/A,,Clear,160,2012-12-03 09:15:00
3:35 AM,62.6,57.2,82,29.80,10.0,South,10.4,-,N/A,,Clear,170,2012-12-03 09:35:00
3:55 AM,62.6,59.0,88,29.79,10.0,South,12.7,21.9,N/A,,Clear,180,2012-12-03 09:55:00
4:15 AM,62.6,59.0,88,29.78,10.0,South,13.8,20.7,N/A,,Clear,170,2012-12-03 10:15:00
4:35 AM,62.6,59.0,88,29.77,10.0,South,12.7,-,N/A,,Clear,170,2012-12-03 10:35:00
4:55 AM,62.6,59.0,88,29.76,10.0,South,12.7,19.6,N/A,,Clear,170,2012-12-03 10:55:00
5:15 AM,62.6,59.0,88,29.76,10.0,South,12.7,18.4,N/A,,Clear,180,2012-12-03 11:15:00
5:35 AM,62.6,59.0,88,29.74,10.0,South,12.7,20.7,N/A,,Clear,170,2012-12-03 11:35:00
5:55 AM,62.6,59.0,88,29.74,10.0,South,12.7,20.7,N/A,,Clear,170,2012-12-03 11:55:00
6:15 AM,62.6,59.0,88,29.74,10.0,South,12.7,19.6,N/A,,Clear,170,2012-12-03 12:15:00
6:35 AM,62.6,57.2,82,29.74,10.0,South,13.8,20.7,N/A,,Clear,180,2012-12-03 12:35:00
6:55 AM,62.6,59.0,88,29.74,10.0,South,13.8,19.6,N/A,,Clear,180,2012-12-03 12:55:00
7:15 AM,62.6,59.0,88,29.74,10.0,South,11.5,18.4,N/A,,Clear,170,2012-12-03 13:15:00
7:35 AM,62.6,59.0,88,29.74,10.0,South,12.7,19.6,N/A,,Clear,170,2012-12-03 13:35:00
7:55 AM,62.6,59.0,88,29.74,10.0,SSE,9.2,-,N/A,,Clear,160,2012-12-03 13:55:00
8:15 AM,62.6,59.0,88,29.74,10.0,SSE,9.2,17.3,N/A,,Scattered Clouds,160,2012-12-03 14:15:00
8:35 AM,62.6,59.0,88,29.75,10.0,SSE,8.1,-,N/A,,Overcast,160,2012-12-03 14:35:00
8:55 AM,64.4,59.0,83,29.76,10.0,South,9.2,-,N/A,,Overcast,180,2012-12-03 14:55:00
9:15 AM,66.2,59.0,78,29.74,10.0,South,20.7,25.3,N/A,,Mostly Cloudy,190,2012-12-03 15:15:00
9:35 AM,68.0,59.0,73,29.74,10.0,South,16.1,26.5,N/A,,Mostly Cloudy,180,2012-12-03 15:35:00
9:55 AM,68.0,59.0,73,29.74,10.0,South,16.1,27.6,N/A,,Overcast,190,2012-12-03 15:55:00
10:15 AM,68.0,59.0,73,29.74,10.0,SSW,21.9,29.9,N/A,,Overcast,200,2012-12-03 16:15:00
10:35 AM,69.8,59.0,68,29.75,10.0,SSW,20.7,27.6,N/A,,Overcast,210,2012-12-03 16:35:00
10:55 AM,69.8,57.2,64,29.75,10.0,SSW,21.9,32.2,N/A,,Overcast,210,2012-12-03 16:55:00
11:15 AM,69.8,57.2,64,29.75,10.0,SSW,21.9,28.8,N/A,,Overcast,210,2012-12-03 17:15:00
11:35 AM,69.8,55.4,60,29.75,10.0,SSW,24.2,34.5,N/A,,Overcast,200,2012-12-03 17:35:00
11:55 AM,69.8,55.4,60,29.74,10.0,SSW,21.9,31.1,N/A,,Mostly Cloudy,200,2012-12-03 17:55:00
12:15 PM,71.6,57.2,60,29.75,10.0,SSW,19.6,29.9,N/A,,Mostly Cloudy,210,2012-12-03 18:15:00
12:35 PM,69.8,55.4,60,29.74,10.0,SSW,17.3,33.4,N/A,,Overcast,210,2012-12-03 18:35:00
1:15 PM,71.6,55.4,57,29.75,10.0,SW,19.6,28.8,N/A,,Overcast,220,2012-12-03 19:15:00
1:35 PM,71.6,55.4,57,29.76,10.0,SSW,15.0,25.3,N/A,,Overcast,210,2012-12-03 19:35:00
2:35 PM,71.6,55.4,57,29.77,10.0,SSW,13.8,18.4,N/A,,Mostly Cloudy,210,2012-12-03 20:35:00
3:15 PM,69.8,57.2,64,29.78,10.0,South,10.4,-,N/A,,Scattered Clouds,190,2012-12-03 21:15:00
3:35 PM,69.8,57.2,64,29.79,10.0,South,9.2,-,N/A,,Mostly Cloudy,190,2012-12-03 21:35:00
3:55 PM,69.8,57.2,64,29.80,10.0,SSW,6.9,-,N/A,,Overcast,200,2012-12-03 21:55:00
4:15 PM,69.8,57.2,64,29.81,10.0,SSW,8.1,-,N/A,,Overcast,210,2012-12-03 22:15:00
4:35 PM,62.6,44.6,52,29.84,10.0,NW,16.1,20.7,N/A,,Overcast,310,2012-12-03 22:35:00
4:55 PM,60.8,44.6,55,29.85,10.0,NW,10.4,-,N/A,,Mostly Cloudy,310,2012-12-03 22:55:00
5:15 PM,60.8,44.6,55,29.87,10.0,NW,11.5,-,N/A,,Mostly Cloudy,320,2012-12-03 23:15:00
5:35 PM,59.0,42.8,55,29.89,10.0,NNW,17.3,23.0,N/A,,Mostly Cloudy,330,2012-12-03 23:35:00
5:55 PM,59.0,42.8,55,29.90,10.0,NNW,11.5,-,N/A,,Overcast,330,2012-12-03 23:55:00
6:15 PM,59.0,42.8,55,29.91,10.0,NNW,8.1,-,N/A,,Unknown,330,2012-12-04 00:15:00
6:35 PM,59.0,42.8,55,29.92,10.0,NW,9.2,-,N/A,,Unknown,320,2012-12-04 00:35:00
6:55 PM,59.0,42.8,55,29.93,10.0,NNW,8.1,17.3,N/A,,Unknown,330,2012-12-04 00:55:00
7:15 PM,59.0,42.8,55,29.95,10.0,NNW,8.1,-,N/A,,Unknown,340,2012-12-04 01:15:00
7:35 PM,59.0,42.8,55,29.95,10.0,North,10.4,-,N/A,,Overcast,350,2012-12-04 01:35:00
7:55 PM,59.0,42.8,55,29.96,10.0,NNW,9.2,-,N/A,,Overcast,340,2012-12-04 01:55:00
8:15 PM,57.2,42.8,59,29.97,10.0,NNW,10.4,-,N/A,,Overcast,340,2012-12-04 02:15:00
8:35 PM,57.2,41.0,55,29.98,10.0,NNW,9.2,-,N/A,,Overcast,330,2012-12-04 02:35:00
8:55 PM,55.4,41.0,58,29.99,10.0,NNW,10.4,-,N/A,,Mostly Cloudy,340,2012-12-04 02:55:00
9:15 PM,55.4,41.0,58,29.99,10.0,NNW,8.1,-,N/A,,Scattered Clouds,340,2012-12-04 03:15:00
9:35 PM,53.6,39.2,58,29.99,10.0,NNW,9.2,-,N/A,,Clear,340,2012-12-04 03:35:00
9:55 PM,53.6,39.2,58,30.01,10.0,NNW,6.9,-,N/A,,Clear,340,2012-12-04 03:55:00
10:15 PM,53.6,37.4,54,30.01,10.0,North,9.2,-,N/A,,Clear,350,2012-12-04 04:15:00
10:35 PM,51.8,37.4,58,30.02,10.0,NNW,8.1,-,N/A,,Clear,340,2012-12-04 04:35:00
10:55 PM,51.8,35.6,54,30.02,10.0,NNW,4.6,-,N/A,,Clear,340,2012-12-04 04:55:00
11:15 PM,50.0,35.6,58,30.03,10.0,NNW,3.5,-,N/A,,Clear,330,2012-12-04 05:15:00
11:35 PM,50.0,35.6,58,30.03,10.0,NNW,5.8,-,N/A,,Clear,340,2012-12-04 05:35:00
11:55 PM,48.2,35.6,62,30.04,10.0,Calm,Calm,-,N/A,,Clear,0,2012-12-04 05:55:00